{"data":{"norad_id":66088,"intl_designator":"2025-236C","name":"STARLINK-35461","alt_names":[],"object_type":"PAYLOAD","status":"ACTIVE","operator":null,"country":"US","launch_date":"2025-10-19","launch_site_code":"AFWTR","launch_vehicle":null,"mission":null,"orbit_class":"UNKNOWN","rcs_meters":null,"size_class":null,"mass_kg":null,"dimensions":null,"purposes":["comms"],"wikipedia_slug":null,"has_3d_model":false,"image_url":null,"decayed_at":null,"tle_current":{"epoch":"2026-09-20T05:47:28.370112Z","epoch_age_seconds":125449,"freshness":"FRESH","line1":"1 66088U 25236C   26263.24130058  .00022534  00000+0  67604-3 0  9999","line2":"2 66088  53.1590 278.6182 0001278  91.2818 268.8331 15.34400037 52694","mean_motion":15.34400037,"eccentricity":0.0001278,"inclination_deg":53.159,"raan_deg":278.6182,"arg_perigee_deg":91.2818,"mean_anomaly_deg":268.8331,"bstar":0.00067604,"rev_number":5269,"period_min":93.847755818322,"perigee_km":461.82887086667,"apogee_km":463.57738960395,"semimajor_km":6840.8401302353,"source":"CELESTRAK","updated_at":"2026-09-21T09:00:35.800368Z"}}}